STARLINK-11246 [DTC] (60932 NORAD) Tracking and Keplerian Element Data

This shows tracking and keplerian element data for the satellite.

Feedback or suggestion? Click here.




ElementValue
Catalog60932
NameSTARLINK-11246 [DTC]
Epoch Orbit609
Epoch Day286.91668981
Epoch Year2024
RAAN348.8416
Inclination53.1586
Eccentricity0.0001149
Argument of Perigee75.3019
Mean Anonmoly92.6966
Mean Motion15.69707931
Decay Rate-0.00015959
L11 60932U 24155J 24286.91668981 -.00015959 00000+0 -12713-3 0 9994
L22 60932 53.1586 348.8416 0001149 75.3019 92.6966 15.69707931 6095



Live tracking and technical data element details for STARLINK-11246 [DTC] (NORAD 60932). STARLINK-11246 [DTC] can be tracked NOW for your location showing map with azimuth and elevation plus other details from your city location.







IsCatalogInMostPopularTable: catalog: 60932, numindb: 11
Update: records affected: 1



GetName: 60932 STARLINK-11246 [DTC]

Hit Count: updated at: Wed, 04 Dec 2024 19:27:42 GMT